Weather History for CYMX - January, 2015

Change the Weather History Date:

Wednesday, January 21, 2015

  Actual Average (WUND) Record (WUND)
Temperature  
Mean Temperature 0 °F -  
Max Temperature 12 °F - - (-1)
Min Temperature -11 °F - - (-1)
Degree Days  
Heating Degree Days 64    
Moisture  
Dew Point -9 °F    
Average Humidity 69    
Maximum Humidity 84    
Minimum Humidity 52    
Precipitation  
Precipitation 0.00 in - - ()
Sea Level Pressure  
Sea Level Pressure 30.24 in    
Wind  
Wind Speed 3 mph ()    
Max Wind Speed 8 mph    
Max Gust Speed -    
Visibility 18.3 miles    
Events      
Averages and records for this station are not official NWS values.
T = Trace of Precipitation, MM = Missing Value Source: Averaged Metar Reports

Daily Weather History Graph

Daily Weather History Graph

Search for Another Location

Airport or City:

Trip Planner

Search our weather history database for the weather conditions in past years. The results will help you decide how hot, cold, wet, or windy it might be!

Date:

Astronomy

Jan. 21, 2015 Rise Set
Actual Time 7:28 AM EST 4:46 PM EST
Civil Twilight 6:56 AM EST 5:19 PM EST
Nautical Twilight 6:19 AM EST 5:55 PM EST
Astronomical Twilight 5:44 AM EST 6:30 PM EST
Moon 7:51 AM EST (1/21) 6:38 PM EST (1/21)
Length of Visible Light 10h 22m
Length of Day
9h 17m
New Moon, 2% of the Moon is Illuminated
Jan 21
New Moon
Jan 26
First Quarter
Feb 3
Full
Feb 11
Last Quarter
Feb 18
New

Hourly Weather History & Observations

Time (EST) Temp. Windchill Dew Point Humidity Pressure Visibility Wind Dir Wind Speed Gust Speed Precip Events Conditions
12:00 AM -2.2 °F -15.6 °F -7.6 °F 78% 30.13 in 25.0 mi West 6.9 mph - N/A   Clear
1:00 AM -2.2 °F -16.8 °F -7.6 °F 78% 30.14 in 25.0 mi WSW 8.1 mph - N/A   Clear
2:00 AM -2.2 °F -14.2 °F -9.4 °F 71% 30.16 in 25.0 mi West 5.8 mph - N/A   Clear
3:00 AM -7.6 °F -16.5 °F -13.0 °F 77% 30.18 in 25.0 mi WSW 3.5 mph - N/A   Clear
4:00 AM -9.4 °F - -14.8 °F 77% 30.18 in 25.0 mi WSW 2.3 mph - N/A   Clear
5:00 AM -11.2 °F - -16.6 °F 77% 30.20 in 25.0 mi WSW 2.3 mph - N/A   Clear
6:00 AM -9.4 °F - -14.8 °F 77% 30.21 in 25.0 mi Calm Calm - N/A   Clear
7:00 AM -11.2 °F - -14.8 °F 84% 30.22 in 25.0 mi Calm Calm - N/A   Partly Cloudy
8:00 AM -11.2 °F - -16.6 °F 77% 30.24 in 45.0 mi Variable 2.3 mph - N/A   Partly Cloudy
9:00 AM -5.8 °F -14.5 °F -11.2 °F 77% 30.26 in 20.0 mi NE 3.5 mph - N/A   Partly Cloudy
10:00 AM -2.2 °F - -9.4 °F 71% 30.28 in 25.0 mi Calm Calm - N/A   Partly Cloudy
11:00 AM 3.2 °F - -5.8 °F 66% 30.28 in 25.0 mi Variable 2.3 mph - N/A   Partly Cloudy
12:00 PM 6.8 °F - -4.0 °F 61% 30.28 in 25.0 mi Variable 2.3 mph - N/A   Partly Cloudy
1:00 PM 8.6 °F - -4.0 °F 57% 30.26 in 20.0 mi Variable 2.3 mph - N/A   Partly Cloudy
2:00 PM 10.4 °F 4.0 °F -4.0 °F 52% 30.26 in 25.0 mi East 3.5 mph - N/A   Partly Cloudy
3:00 PM 12.2 °F - -2.2 °F 53% 30.26 in 25.0 mi Variable 2.3 mph - N/A   Partly Cloudy
4:00 PM 10.4 °F - -4.0 °F 52% 30.26 in 25.0 mi NE 2.3 mph - N/A   Partly Cloudy
5:00 PM 6.8 °F -0.1 °F -4.0 °F 61% 30.27 in 25.0 mi NNE 3.5 mph - N/A   Partly Cloudy
6:00 PM 5.0 °F -2.1 °F -4.0 °F 66% 30.27 in 25.0 mi NE 3.5 mph - N/A   Clear
7:00 PM 1.4 °F - -5.8 °F 72% 30.27 in 25.0 mi Variable 2.3 mph - N/A   Clear
8:00 PM 1.4 °F - -7.6 °F 66% 30.27 in 25.0 mi Calm Calm - N/A   Clear
9:00 PM 1.4 °F - -5.8 °F 72% 30.26 in 25.0 mi Variable 2.3 mph - N/A   Partly Cloudy
10:00 PM -0.4 °F - -7.6 °F 72% 30.27 in 25.0 mi Variable 2.3 mph - N/A   Scattered Clouds
11:00 PM -2.2 °F -10.4 °F -9.4 °F 71% 30.26 in 15.0 mi NNE 3.5 mph - N/A   Scattered Clouds